Погода в Акташе

Россия / Республика Алтай     50°18′46″N   87°36′10″E
темп.,
°C
ветер,
м/с
пор.,
м/с
влажн.,
%
обл.,
%
осадки,
мм/ч
давл.,
гПа
погр.,
м
19 января, вт
вт1901:00−10ю336257 0.1 101736
04:00−10ю4474100 0.3 101657
07:00−10ююз4482100 0.4 101686
10:00−10ююз3490100 0.3 1016133
13:00−7юз3485100 0.9 1015352
16:00−7ююз3478100 0.3 1014211
19:00−12ююз446796 0.3 101840
22:00−10ююз447185 0.0 101847
20 января, ср
ср2001:00−12ююз337084 0.0 101932
04:00−12ююз338485 0.1 101929
07:00−12юз229287 0.1 102030
10:00−12юз229199 0.2 102228
13:00−8зюз228486 0.2 1020264
16:00−8зюз228962 0.0 102091
19:00−12ююз228569 0.0 102326
22:00−11ю238797 0.1 102433
21 января, чт
чт2101:00−12ю338290 0.1 102435
04:00−12ююз3383100 0.0 102438
07:00−13ююз338199 0.0 102432
10:00−14ю338166 0.0 102534
13:00−8ююз127872 0.0 1021308
16:00−9ююз2284100 0.0 1019222
19:00−12ююв3382100 0.0 102038
22:00−14ююв448163 0.0 101944
22 января, пт
пт2201:00−13ююв348173 0.0 101757
04:00−12ююв4480100 0.0 101566
07:00−12ююв3480100 0.0 101356
10:00−12ююв347868 0.0 101256
13:00−7ююв457662 0.0 1008219
16:00−7ю3480100 0.0 1007108
19:00−10ю347996 0.0 100948
22:00−11ю338398 0.0 100948
23 января, сб
сб2301:00−11ююз338699 0.3 100941
04:00−12юз2287100 0.1 101230
07:00−13юз2390100 0.5 101650
10:00−15юз3390100 0.1 102157
13:00−14юз347796 0.2 1020754
16:00−16юз3480100 0.0 1021259
19:00−22ююз3385100 0.0 102630
22:00−24юз3392100 0.1 103133